Location: Unspecified
(0.0000°N, 0.0000°E)
Time: 17:25:36
(UTC+00:00)

ISS - Visible Passes

Search period start: 21 November 2017 00:00
Search period end: 01 December 2017 00:00
Orbit: 402 x 407 km, 51.6° (Epoch: 22 November)

Date Brightness Start Highest point End Pass type
(mag) Time Alt. Az. Time Alt. Az. Time Alt. Az.
21 Nov -2.9 18:20:49 10° SW 18:23:59 46° NW 18:27:08 10° NNE visible
23 Nov -2.2 05:02:41 10° N 05:05:36 31° NE 05:08:31 10° ESE visible
23 Nov -0.9 18:14:22 10° W 18:15:48 12° NW 18:17:14 10° NNW visible
24 Nov -1.0 04:12:05 10° NNE 04:13:21 12° NE 04:14:42 10° E visible
25 Nov -3.7 04:55:17 19° NW 04:57:21 54° SW 05:00:33 10° SSE visible
26 Nov -2.5 04:05:43 39° E 04:05:43 39° E 04:08:14 10° SE visible
27 Nov -1.7 04:48:47 14° WSW 04:49:05 14° SW 04:50:54 10° SSW visible
28 Nov -1.2 03:59:03 15° S 03:59:03 15° S 03:59:49 10° SSE visible
